Location: Austin
(30.3000°N, 97.7500°W)
Time: 04:07:24
(UTC-05:00)

Atlas Centaur 2 - Pass Details

Date: 01 October 2024
Orbit: 457 x 1270 km, 30.4° (Epoch: 06 October)

Event Time Altitude Azimuth Distance (km) Brightness Sun altitude
Rises 21:03:18 0° 257° (WSW) 3,730 6.7 -24.0°
Reaches altitude 10° 21:06:16 10° 257° (WSW) 2,646 5.6 -24.6°
Maximum altitude 21:12:34 80° 171° (S) 796 1.9 -26.0°
Enters shadow 21:12:44 79° 144° (SE) 795 1.9 -26.0°
